Погода в Ербенте

Погода в Ербенте : погода сейчас, прогноз погоды и архив. Всё, что Вы хотите узнать о погоде в Ербенте!

Хотите узнать прогноз погоды в Ербенте? Тогда Вам сюда: Погода в Ербенте

Поиск расширенной информации на нашем сайте:

Другие новости

Новости СМИ2

Главная страница сайта

Новости сайта

03.07.2017

Напоминаем, что на нашем специализированном сайте Метеоцентр.Азия вы можете получить высокодетализированные автоматические прогнозы погоды по пунктам России, СНГ и мира в авиационном формате (включающие направление и скорость ветра, видимость, явления погоды, количество и форму облачности, нижнюю и верхнюю границу облачности).


Погода в Ербенте - сегодня

Время (UTC), дата Ветер
(°,м/с) 
Видим.   Явления Облачность Т
(°С)
Тd
(°С)
f(%) Тe
(°С)
Pmin
(гПа)
dP
(гПа)
Po
(мм)
O2
(г/м3)
Тmin Tmax R s Состояние
почвы
15 18.11.18 тихо ()   20000 м    9/0 средняя 
[As trans]
+11.4 -3.8 34 +11  1023.2  0.1  759  294    +11.4       
18 18.11.18 тихо ()   20000 м    9/0 средняя 
[Ac cast]
+10.4 -3.3 38 +10  1022.7  -0.6  759  295    +16.7       
21 18.11.18 тихо ()   20000 м    9/9 1000 м 
[Sc]
+10 -3.6 38 +10  1021.9  -0.8  758  295           
00 19.11.18 тихо ()   20000 м    10/10 1000 м 
[Sc]
+9.2 -3.6 40 +9  1022.1  0.2  758  296           
03 19.11.18 360 (С) 20000 м    10/10 1000 м 
[Sc]
+8.6 -3.6 42 +9  1022.9  0.8  759  297           
06 19.11.18 070 (В) 20000 м  в посл. час ливневой дождь  10/10 1000 м 
[Sc]
+7.6 +4.8 82 +8  1023.9  0.9  760  297  +8.4         
09 19.11.18 320 (СЗ) 20000 м    10/10 1000 м 
[Sc]
+8.8 +6.4 85 +9  1024.5  0.7  760  296           
12 19.11.18 тихо ()   20000 м    10/10 1000 м 
[Sc]
+9.4 +6.8 84 +9  1024.8  0.3  760  295           
15 19.11.18 тихо ()   20000 м    10/10 1000 м 
[Sc]
+9.4 +7.1 86 +9  1026  1.2  761  295    +9.9     
18 19.11.18 тихо ()   20000 м    ясно 
+7 +4.5 84 +7  1026.9  0.8  762  299    +9.9     
21 19.11.18 тихо ()   20000 м  в посл. час туман  9/9 1000 м 
[Sc]
+5.6 +2.7 82 +6  1026.9  -0.1  762  300           
00 20.11.18 230 (ЮЗ) 20000 м  туман  9/0 средняя 
[Ac cast]
+4.2 +1.4 82 +4  1026.9  -0.1  762  302           
03 20.11.18 тихо ()   20000 м    3/0 средняя 
[Ac cast]
+3.6 +0.7 81 +4  1028.1  1.2  763  303           
06 20.11.18 тихо ()   20000 м    3/0 средняя 
[Ac cast]
+7.5 +4.5 81 +8  1028.9  0.9  763  299  +3.5         
09 20.11.18 090 (В) 20000 м    ясно 
+12.3 +2.1 50 +13  1026.5  -2.1  762  293           
12 20.11.18 140 (ЮВ) 20000 м    4/0 верхняя 
[Ci sp]
+12 +2.7 53 +12  1025.1  -1.5  761  293           
15 20.11.18 090 (В) 20000 м    4/0 верхняя 
[Ci sp]
+9.4 +6.4 82 +9  1024.6  -0.5  760  295    +12.6       
18 20.11.18 090 (В) 20000 м    ясно 
+8 +5.6 85 +7  1022.6  -2.1  759  296    +12.6       
21 20.11.18 090 (В) 20000 м    8/0 средняя 
[Ac cast]
+7.8 +6 88 +7  1020  -2.5  757  296           
00 21.11.18 090 (В) 20000 м    9/9 1000 м 
[Sc]
+7.2 +5 86 +6  1017.5  -2  755  296           
03 21.11.18 090 (В) 20000 м    9/9 1000 м 
[Sc]
+5.8 +3.9 88 +5  1016  -1.5  754  297           
06 21.11.18 140 (ЮВ) 0500 м  туман  10/10 300 м 
[St]
+6.8 +4.7 86 +7  1014.8  -1.1  753  295  +5.5         
09 21.11.18 230 (ЮЗ) 20000 м  в посл. час туман  10/10 600 м 
[Sc]
+8.8 +6.4 85 +9  1013.1  -1.6  752  292           
12 21.11.18 290 (З) 20000 м    9/9 1000 м 
[Sc]
+10.4 +6.5 77 +11  1011.7  -1.3  751  290           
15 21.11.18 тихо ()   20000 м    ясно 
+8.6 +5.8 83 +9  1013.1  1.3  752  293    +10.6       
Время (UTC), дата Ветер
(°,м/с) 
Видим.   Явления Облачность Т
(°С)
Тd
(°С)
f(%) Тe
(°С)
Pmin
(гПа)
dP
(гПа)
Po
(мм)
O2
(г/м3)
Тmin Tmax R s Состояние
почвы

Для получения пояснительной информации подведите курсор к названию столбца.

ПОГОДА в Ербенте - архив

Всё, что Вы хотите узнать о погоде в Ербенте - удобно и подробно!

Выберите нужную дату (начиная с 1 января 2015* года) и нажмите кнопку "Найти".
Будут отображены архивные сводки погоды по пункту Ербент, начиная с указанной даты.


Отображать данные в формате CSV (для использования в таблицах Excel)


Внимание! Наш архив погоды предназначен исключительно для личного некоммерческого использования в познавательных целях. Если Вам необходимы официальные справки о состоянии погоды (для производственных, юридических, коммерческих и т.п. целей), обращайтесь в органы Росгидромета.

*Примечание: данная дата относится к архиву по метеостанциям СССР (Россия, СНГ, Балтия).
Архив по метеостанциям Зарубежной Европы и Азии (кроме Китая) хранится 10 дней, по другим регионам земного шара (Китай, Африка, Америка, Австралия, Океания) - 1 день.

Ербент - район местоположения метеостанции


Название, широта, долгота, высота метеостанции:
Ербент 39.3°ш. 58.6°д. 87 м над ур. моря [Туркменистан]

Дополнительная информация

В oтличие oт бoльшинства пoгoдных сайтoв мы публикуем пoдрoбную метеoинфoрмацию в детальнoм прoфессиoнальнoм фoрмате.

Характеристики температуры и влажнoсти вoздуха измеряются на высoте 2 м в тени вдали oт зданий и деревьев.
Скoрoсть ветра измеряется на высoте 10 м (на урoвне рoста челoвека скoрoсть ветра ниже в 1.5-2 раза). Если метеoстанция нахoдится в гoрoде или в лесу, тo скoрoсть ветра занижена на 2-4 м/с пo сравнению с oткрытым местoм. Скoрoсть ветра над акватoриями крупных рек и oзёр, а также на вершинах хoлмoв на 2-5 м/с выше, чем в oбычных услoвиях.
Атмoсфернoе давление в разных тoчках местнoсти мoжет значительнo oтличаться oт давления на метеoстанции, в зависимoсти oт услoвий рельефа (при пoдъёме на 10 м давление пoнижается примернo на 1 мм рт.ст.).